Location: Courcelles
(49.8121°N, 2.0451°E)
Time: 05:22:57
(UTC+00:00)

Daily predictions for brighter satellites

Satellite Brightness Start Highest point End
(mag) Time Altitude Azimuth Time Altitude Azimuth Time Altitude Azimuth
SL-16 R/B 3.9 00:59:04 34° NNE 00:59:04 34° NNE 01:02:51 10° N
SL-16 R/B 4.2 01:06:44 23° N 01:06:44 23° N 01:09:04 10° NNE
ATLAS 5 CENTAUR R/B 4.4 01:40:35 15° NNE 01:40:35 15° NNE 01:41:35 10° NNE
ADEOS II 3.8 01:33:44 10° NNE 01:36:36 29° NE 01:36:36 29° NE
Cosmos 1697 Rocket 4.2 02:08:36 10° NNW 02:13:46 35° NE 02:18:54 10° ESE
Cosmos 1821 Rocket 4.2 02:17:01 65° NNE 02:17:01 65° NNE 02:22:21 10° N
ALOS 4.4 02:13:34 10° NE 02:17:03 20° E 02:17:49 20° ESE
Cosmos 2123 Rocket 4.2 02:18:05 10° N 02:24:18 67° ENE 02:24:56 63° ESE
CZ-2D R/B 3.4 02:23:14 10° N 02:26:25 33° NNW 02:26:25 33° NNW
Resurs 1-4 Rocket 3.4 02:24:39 10° N 02:27:37 31° NNW 02:27:37 31° NNW
Cosmos 1934 Rocket 4.2 02:35:19 57° SE 02:36:20 66° E 02:42:36 10° NNE
Cosmos 1140 Rocket 4.5 02:34:48 10° NNW 02:38:04 39° N 02:38:04 39° N
SL-16 R/B 4.1 02:44:11 21° NW 02:44:11 21° NW 02:46:27 10° NNW
Cosmos 1932 4.4 02:46:39 73° NW 02:46:44 73° NW 02:53:13 10° NE
SL-16 R/B 4.4 02:48:36 13° NW 02:49:29 13° NNW 02:52:07 10° N
IDEFIX/ARIANE 42P 3.3 02:45:52 10° N 02:49:43 43° NNW 02:49:43 43° NNW
Cosmos 1980 Rocket 3.7 02:48:32 10° NNW 02:53:40 35° NE 02:58:47 10° ESE
USA 305 4.4 02:57:54 29° ESE 02:57:54 29° ESE 03:00:38 10° ENE
MSX 3.9 02:52:23 10° N 02:57:46 61° NW 02:57:46 61° NW
BREEZE-M DEB (TANK) 4.4 03:08:22 30° S 03:08:22 30° S 03:15:15 10° SE
CBERS-1 4.3 03:02:07 10° NNE 03:07:13 63° ESE 03:08:37 45° SSE
IRS-1D 3.4 03:04:33 10° NNE 03:09:55 79° WNW 03:10:11 76° WSW
Cosmos 1190 Rocket 4.1 03:05:49 10° NNW 03:11:03 76° ENE 03:16:15 10° SSE
BREEZE-M DEB (TANK) 4.0 03:13:25 28° E 03:13:25 28° E 03:14:37 10° E
Cosmos 44 4.5 03:13:57 27° NNW 03:13:57 27° NNW 03:17:08 10° NNE
Cosmos 1633 Rocket 4.0 03:09:21 10° N 03:13:34 47° ENE 03:17:45 10° SSE
ATLAS CENTAUR R/B 3.5 03:12:27 21° SSE 03:14:28 28° ESE 03:18:34 10° ENE
PAYLOAD A 4.5 03:12:33 10° NNE 03:17:15 53° E 03:19:42 27° SSE
ADEOS II 3.1 03:13:40 10° N 03:17:31 31° NW 03:17:31 31° NW
Meteor 1-5 Rocket 4.5 03:13:48 10° NNW 03:18:00 46° NW 03:18:00 46° NW
Cosmos 407 Rocket 3.6 03:15:42 10° NNW 03:27:30 - S 03:20:08 55° WNW
Atlas Centaur 2 4.5 03:21:38 18° S 03:22:02 18° S 03:26:52 10° SE
ATLAS 5 CENTAUR R/B 3.8 03:22:01 14° NNW 03:23:29 16° N 03:26:29 10° NNE
Cosmos 1666 Rocket 3.7 03:21:41 10° N 03:26:10 76° ENE 03:30:03 14° SSE
Meteor 1-14 Rocket 4.3 03:22:41 10° NNW 03:28:32 59° W 03:30:18 42° SSW
Cosmos 1515 4.5 03:29:05 35° SE 03:30:12 48° E 03:33:49 10° NNE
Cosmos 1328 Rocket 4.4 03:28:13 17° SSE 03:31:18 48° E 03:35:34 10° NNE
USA 307 3.3 03:32:44 47° SSE 03:33:05 48° SE 03:37:07 10° ENE
CZ-2C R/B 2.4 03:30:00 10° NNE 03:35:03 79° ESE 03:37:31 30° S
Cosmos 1833 Rocket 2.7 03:32:50 35° SSW 03:35:20 77° ESE 03:41:01 10° NNE
Cosmos 2360 4.1 03:32:01 10° NNW 03:37:42 70° WSW 03:43:21 10° SSE
FENGYUN 3A 3.6 03:34:26 10° N 03:39:47 68° WNW 03:41:44 40° SW
Cosmos 1151 Rocket 2.8 03:39:15 54° SSW 03:40:12 85° W 03:44:31 10° N
Meteor 1-11 Rocket 3.8 03:36:49 10° NNW 03:42:51 86° ENE 03:48:49 10° SSE
USA 306 2.9 03:44:56 54° SSW 03:45:37 66° SSE 03:49:43 10° ENE
ARIANE 5 R/B 2.8 03:44:12 10° NNE 03:49:14 64° ESE 03:54:11 10° S
Cosmos 2082 Rocket 3.2 03:47:02 10° S 03:52:19 45° ESE 03:57:39 10° NE
Cosmos 2098 Rocket 4.4 03:49:41 10° NNW 03:50:20 15° NNW 03:50:20 15° NNW
Lacrosse 4 Rocket 3.7 03:49:17 10° NNW 03:52:55 25° NE 03:56:35 10° E
Cosmos 1153 Rocket 4.4 03:46:56 10° S 03:53:05 89° W 03:59:22 10° N
RUBIN 8/PSLV 4.5 03:49:58 10° N 03:54:16 72° WNW 03:56:08 34° SSW
Cosmos 2100 Rocket 4.4 03:48:44 10° S 03:54:46 63° E 04:00:51 10° NNE
ALOS 2.3 03:50:12 10° N 03:54:47 56° WNW 03:56:16 38° SW
Cosmos 1470 Rocket 3.6 03:53:04 10° N 03:57:25 79° E 04:01:46 10° SSE
Cosmos 1697 Rocket 2.8 03:52:29 10° NW 03:57:57 51° WSW 04:03:24 10° S
COSMOS 2406 3.5 03:55:00 13° SSW 04:00:06 65° ESE 04:05:44 10° NNE
METEOR-M 4.1 03:54:43 10° NNE 04:00:07 87° WNW 04:05:23 10° SSW
Helios 1B rocket 2.3 03:56:50 10° NNE 04:00:54 76° WNW 04:03:02 27° SSW
Cosmos 676 Rocket 3.9 03:56:05 10° NNW 04:01:17 71° WSW 04:06:30 10° SSE
Cosmos 1356 3.3 04:02:57 53° WNW 04:02:57 53° WNW 04:06:07 10° N
IRS-P3 4.1 03:59:24 10° NNE 04:04:48 88° ESE 04:10:08 10° SSW
CZ-2D R/B 3.6 04:01:47 10° NNE 04:05:44 68° ESE 04:09:42 10° S
ERBS 2.4 04:06:51 45° NW 04:06:58 45° NNW 04:09:46 10° NE
CZ-2D R/B 4.3 04:06:36 10° NW 04:07:12 10° NW 04:07:43 10° NW
Cosmos 1743 2.6 04:04:01 10° NNW 04:07:47 61° W 04:11:31 10° S
USA 308 2.8 04:06:20 36° SW 04:07:56 77° SSE 04:12:05 10° ENE
CZ-2C R/B 2.5 04:02:59 10° S 04:08:11 70° WSW 04:13:32 10° NNW
BREEZE-M DEB (TANK) 1.5 04:07:53 56° SW 04:08:17 73° SSE 04:12:08 10° E
Cosmos 1624 Rocket 4.0 04:06:30 21° SSW 04:10:09 74° WNW 04:15:31 10° NNE
Cosmos 1536 2.8 04:09:53 10° NNW 04:13:52 55° W 04:17:49 10° S
Cosmos 1441 Rocket 3.0 04:12:34 18° SSW 04:15:12 76° WNW 04:18:59 10° N
Envisat 3.4 04:10:46 10° NNE 04:15:51 66° ESE 04:20:54 10° S
Meteor 1-4 Rocket 2.6 04:13:29 10° NNW 04:17:02 50° W 04:20:34 10° S
CZ-2C R/B 4.3 04:20:30 10° NNE 04:24:02 38° E 04:27:37 10° SSE
Cosmos 1371 Rocket 4.2 04:20:33 19° SW 04:24:13 54° WNW 04:29:23 10° NNE
Cosmos 1346 Rocket 3.1 04:22:51 22° SW 04:25:03 44° WNW 04:28:53 10° N
Cosmos 2322 Rocket 3.7 04:23:07 10° NNW 04:28:24 38° NE 04:33:39 10° ESE
COSMO-SKYMED 1 3.7 04:26:25 10° SE 04:30:35 47° ENE 04:34:47 10° N
H-2A R/B 3.1 04:30:22 10° NNE 04:34:00 63° ESE 04:37:37 10° S
Cosmos 1459 Rocket 4.0 04:29:23 10° SSW 04:35:44 76° W 04:42:09 10° N
SL-08 R/B 3.4 04:31:20 10° S 04:35:51 51° W 04:40:30 10° NNW
USA 305 2.9 04:33:26 21° WSW 04:36:04 70° NNW 04:40:12 10° ENE
Tsikada Rocket 4.4 04:30:39 10° N 04:37:00 70° ENE 04:43:13 10° SSE
Cosmos 1980 Rocket 2.3 04:32:29 10° NW 04:37:51 48° WSW 04:43:12 10° S
CENTAUR R/B 3.2 04:33:23 10° SSW 04:39:02 56° ESE 04:45:56 10° NE
Cosmos 1869 Rocket 4.1 04:35:08 10° N 04:39:36 65° ENE 04:43:58 10° SSE
Meteor 2-9 Rocket 4.2 04:34:45 10° NNW 04:40:32 75° W 04:46:08 10° S
Meteor 1-29 2.7 04:37:28 10° N 04:40:46 77° WNW 04:44:03 10° SSW
X-37B 1.5 04:42:04 19° SW 04:43:32 31° S 04:46:09 10° ESE
CZ-2C R/B 3.3 04:37:53 10° NNE 04:43:44 88° ESE 04:49:20 10° SSW
Cosmos 1802 Rocket 4.0 04:37:25 10° SSW 04:43:48 82° W 04:50:10 10° N
Cosmos 2369 4.1 04:39:04 10° NW 04:44:22 41° WSW 04:49:37 10° S
Cosmos 1242 Rocket 4.3 04:41:53 10° N 04:45:05 34° ENE 04:48:14 10° SE
Meteor 1-27 Rocket 3.9 04:39:26 10° SSW 04:45:06 54° WNW 04:50:54 10° N
Cosmos 1850 Rocket 4.0 04:40:58 10° NNW 04:46:18 74° WSW 04:51:37 10° SSE
COSMOS 2455 4.2 04:40:54 10° NNW 04:46:32 39° NE 04:52:09 10° ESE
YAOGAN 6 2.9 04:45:56 10° N 04:49:26 45° WNW 04:52:54 10° SW
Cosmos 1633 Rocket 4.3 04:47:52 10° NW 04:51:01 20° W 04:54:08 10° SW
Cosmos 2278 3.7 04:46:24 10° NNW 04:52:02 67° WSW 04:57:37 10° SSE
DMSP B5D2-2 4.3 04:47:25 10° SSE 04:52:41 81° ENE 04:58:00 10° NNW
ATLAS CENTAUR R/B 1.9 04:48:27 12° WSW 04:52:57 58° NW 04:57:46 10° NE
Cosmos 1725 Rocket 4.1 04:47:21 10° S 04:53:41 87° W 05:00:04 10° N
Cosmos 2056 Rocket 4.2 04:50:11 12° WSW 04:54:33 35° NW 04:59:14 10° N
SL-16 R/B 2.5 04:49:57 10° NNW 04:55:39 72° ENE 05:01:19 10° SE
CZ-4C R/B 3.6 04:51:49 10° S 04:55:53 52° W 05:00:09 10° NNW
NOSS 3-2 (A) 3.6 04:53:50 10° SSW 04:59:18 73° SE 05:05:44 10° NE
Okean 1 3.4 04:56:12 10° SSW 05:00:09 54° WNW 05:04:09 10° N
BREEZE-M DEB (TANK) 3.7 04:59:06 13° W 05:01:33 32° SSW 05:08:05 10° SE
NOAA 11 4.3 04:56:02 10° NNE 05:01:34 89° ESE 05:07:02 10° SSW
Cosmos 1933 Rocket 4.0 04:58:16 10° NNW 05:02:25 39° W 05:06:31 10° SSW
Cosmos 44 Rocket 3.2 04:58:26 10° SW 05:03:08 69° NW 05:07:51 10° NE
Cosmos 1461 3.5 05:00:53 10° SSW 05:04:48 58° SE 05:08:56 10° NE
Cosmos 2173 Rocket 4.3 05:00:50 10° SW 05:06:39 45° WNW 05:12:30 10° N
Cosmos 1484 Rocket 3.8 05:04:15 10° N 05:07:39 28° WNW 05:11:04 10° SW
GP-B 3.5 05:04:48 10° SSW 05:09:00 41° W 05:13:13 10° NNW
ATLAS 5 CENTAUR R/B 4.0 05:06:07 10° NNW 05:09:43 21° NNE 05:13:49 10° ENE
Spot 4 Rocket 4.2 05:06:18 10° N 05:11:19 53° WNW 05:16:17 10° SW
SJ-6F 4.4 05:07:20 10° N 05:11:30 74° WNW 05:15:37 10° SSW
USA 307 3.1 05:08:23 10° W 05:12:30 58° NNW 05:16:37 10° ENE
CZ-2C R/B 3.9 05:09:15 10° NNW 05:12:38 18° NW 05:15:56 10° W
PSLV R/B 3.6 05:08:48 10° N 05:13:06 63° WNW 05:17:21 10° SSW
Cosmos 1741 Rocket 4.3 05:09:47 10° NW 05:14:45 45° WSW 05:19:41 10° S
Orbus 7S? 4.2 05:12:48 10° W 05:16:16 57° NNW 05:23:42 10° ENE
Meteor 1-31 Rocket 4.3 05:12:46 10° NNE 05:16:25 42° E 05:20:04 10° S
Cosmos 1733 4.1 05:12:49 10° N 05:16:31 54° ENE 05:20:10 10° SSE
OPS 6432 4.1 05:14:36 10° NW 05:17:34 86° SW 05:20:50 10° SE
SKYMED 2 3.6 05:14:21 10° S 05:18:38 60° W 05:22:57 10° NNW
CZ-4B R/B 3.7 05:14:33 10° NNE 05:19:48 89° W 05:25:05 10° SSW
Cosmos 1833 Rocket 3.9 05:15:15 10° W 05:19:54 25° NW 05:24:34 10° NNE
Cosmos 2333 Rocket 3.6 05:16:32 10° NNW 05:21:56 41° NE 05:27:16 10° ESE
CZ-3 R/B 4.2 05:15:50 10° WSW 05:27:43 21° SSW 05:33:23 10° SSE
BREEZE M DEB (TANK) 3.9 05:17:45 10° W 05:33:30 82° SSW 05:37:31 10° ESE
